STARLINK-32268, 60372

Orbit data source: Space-Track

STARLINK-32268, 60372 is a payload satellite owned by SpaceX/Seattle (US) in LEO that was launched on Sun, 04 Aug 2024 UTC via an FALCON 9 launch vehicle from the Air Force Western Test Range (AFWTR). Payload-class satellites include a variety of spacecraft equipped with specific instruments for various scientific and technological missions. These include communications satellites like Starlink; space stations such as the ISS; scientific satellites like the Hubble; Earth observation satellites from companies like Planet Labs, Umbra, and HawkEye 360; GPS; miniature CubeSats for education and research; and military/defense satellites.

Loading next visibility...
Identifier
60372, 2024-138T
Orbit
LEO
Country
Flag of USUS
Related business
Manufacturer
SpaceX/Seattle
Mission
Operational Commercial Communications
Bus & Motor
STARLINK V2M, Unknown motor
Mass
730 kg wet, ~700 kg dry
Launch date (UTC)
2024-08-04 (2 years ago)
Launch vehicle
FALCON 9
Launch site
Air Force Western Test Range (AFWTR)
Object type
Payload
Rocket body
Debris
Shape & HBR
Box + 2 Pan, 17.7 m
Radar Cross Section
33.884 m², Large (>1 m²)

Expand to show TLE details & history
Last TLE update: 16 hours ago

TLE from 16 hours ago
0 STARLINK-32268
1 60372U 24138T   26257.99886975 -.00000626  00000-0 -73843-5 0  9995
2 60372  53.1618 149.4337 0001699  65.5317 294.5863 15.34390577119627
Epoch: 2026-09-14T23:58Z
TLE epoch observation values (Epoch: 2026-09-14T23:58:22.346Z)
Latitude
0.00001°
Longitude
155.86948°
Altitude
463.149 km
Speed
7.636 km/s
True Right ascension
09h 57m 44s
True Declination
0° 00' 00"
Sunlit
Object was in daylight at epoch
Visualization orbit readout
Latitude
Unknown
Longitude
Unknown
Altitude
Unknown
Speed
Unknown
Apparent Right ascension
Unknown
Apparent Declination
Unknown
Sunlit
N/A
Visualization observer readout
Local Sidereal Time
08:41:26
Azimuth
Unknown
Elevation
Unknown
Doppler factor
Unknown
Orbital elements
Apogee altitude
464.15 km
Perigee altitude
461.826 km
Semi-major axis
6,841.125 km
Eccentricity
0.00017
Inclination
53.1618°
RAAN
149.4337°
Arg. of periapsis
65.5317°
True anomaly
294.56859°
Mean anomaly
294.5863°
Eccentric anomaly
294.57745°
Mean motion
3.83576 °/min
Orbital period
93.85 mins
BSTAR
-0.0000073843
Loading maneuver chart data...
Computing Atmospheric mass density...
Loading historical data...
Loading historical data...
Loading historical data...
Loading historical data...
Loading historical data...
Loading historical data...
Loading historical data...

Documentation

Showing up to 5 results
|